AirNav   Everest Fuels
 
 407 users online  

03B Mansfield Municipal Airport
Mansfield, Missouri, USA

GOING TO MANSFIELD?


FAA INFORMATION EFFECTIVE 12 SEPTEMBER 2019

Location

FAA Identifier: 03B
Lat/Long: 37-07-36.4000N 092-37-17.8000W
37-07.606667N 092-37.296667W
37.1267778,-92.6216111
(estimated)
Elevation: 1520 ft. / 463 m (estimated)
Variation: 03E (1995)
From city: 2 miles NW of MANSFIELD, MO
Time zone: UTC -5 (UTC -6 during Standard Time)
Zip code: 65704

Airport Operations

Airport use: Open to the public
Activation date: 09/1954
Control tower: no
ARTCC: KANSAS CITY CENTER
FSS: COLUMBIA FLIGHT SERVICE STATION
NOTAMs facility: COU (NOTAM-D service available)
Attendance: UNATNDD
Wind indicator: lighted
Segmented circle: yes
Beacon: white-green (lighted land airport)
Operates sunset to sunrise.

Airport Communications

CTAF: 122.9

Nearby radio navigation aids

VOR radial/distance  VOR name  Freq  Var
DGDr062/13.7DOGWOOD VORTAC109.4001E
SGFr108/36.7SPRINGFIELD VORTAC116.9004E

Airport Services

Parking: hangars and tiedowns
Bottled oxygen: NONE
Bulk oxygen: NONE

Runway Information

Runway 7/25

Dimensions: 3000 x 50 ft. / 914 x 15 m
Surface: asphalt/aggregate friction seal coat, in fair condition
Weight bearing capacity: 
Single wheel: 12.5
Runway edge lights: medium intensity
Gradient: 0.5% UP W.
RUNWAY 7  RUNWAY 25
Latitude: 37-07.556000N37-07.658667N
Longitude: 092-37.598167W092-36.994000W
Elevation: 1520.0 ft.1505.0 ft.
Traffic pattern: leftleft
Markings: basic, in good conditionbasic, in good condition
Obstructions: 45 ft. trees, 650 ft. from runway, 175 ft. left and right of centerline, 10:1 slope to clear41 ft. trees, 620 ft. from runway, 120 ft. left of centerline, 10:1 slope to clear
+2-7 FT BRUSH, SMALL TREES 0-50 FT FM THLD 55-105 FT L; +1-5 FT GND 0-200 FT FM THLD L & R.

Airport Ownership and Management from official FAA records

Ownership: Publicly-owned
Owner: MANSFIELD, CITY OF
122 N. BUS. 60, P.O. BOX 467
MANSFIELD, MO 65704
Phone 417-924-3719
Manager: TERESA CLARK
1588 HWY F
MANSFIELD, MO 65704
Phone 417-924-2782
ARPT BOARD CHAIRMAN.

Airport Operational Statistics

Aircraft based on the field: 9
Single engine airplanes: 9
    
Aircraft operations: avg 26/week *
52% local general aviation
47% transient general aviation
1% military
* for 12-month period ending 31 December 2017

Additional Remarks

DEER & OTHER WILDLIFE ON & INVOF ARPT.
FOR CD CTC SPRINGFIELD APCH AT 417-868-5620/5619.

Instrument Procedures

There are no published instrument procedures at 03B.

Some nearby airports with instrument procedures:

KAOV - Ava Bill Martin Memorial Airport (10 nm S)
1MO - Mountain Grove Memorial Airport (15 nm E)
KTVB - Cabool Memorial Airport (26 nm E)
3DW - Downtown Airport (31 nm W)
KLBO - Floyd W Jones Lebanon Airport (31 nm N)
 
Loc | Ops | Rwys | IFR | FBO | Links
Com | Nav | Svcs | Stats | Notes

Kansas City Aviation Department
 
Area around 03B (Mansfield Municipal Airport)
 
Road maps at: MapQuest Bing Google
 
Aerial photo
WARNING: Photo may not be current or correct
Aerial photo of 03B (Mansfield Municipal Airport)
Do you have a better or more recent aerial photo of Mansfield Municipal Airport that you would like to share? If so, please send us your photo.

 
Sectional chart

 
Airport distance calculator
Flying to Mansfield Municipal Airport? Find the distance to fly.

From to 03B

Sunrise and sunset
Times for 18-Sep-2019
 Local
(UTC-5)
 Zulu
(UTC)
Morning civil twilight06:3011:30
Sunrise06:5611:56
Sunset19:1300:13
Evening civil twilight19:3900:39

Current date and time
Zulu (UTC)  18-Sep-2019 09:59:32
Local (UTC-5)  18-Sep-2019 04:59:32
 
METAR
KLBO 
31nm N 
180955Z AUTO 13004KT 10SM CLR 20/17 A3005 RMK AO2
KSGF 
37nm W 
180952Z 16006KT 10SM CLR 22/17 A3001 RMK AO2 SLP147 T02220172
KUNO 
38nm SE 
180953Z AUTO 00000KT 6SM BR CLR 18/17 A3005 RMK AO2 SLP162 T01830172
KTBN 
43nm NE 
180856Z AUTO 14007KT 10SM CLR 21/19 A3004 RMK AO2 SLP163 T02050186 58001
KBBG 
45nm SW 
180935Z AUTO 00000KT 10SM CLR 20/18 A3004 RMK AO2
KFWB 
45nm SW 
180935Z AUTO 06003KT 10SM CLR 22/19 A3004 RMK AO2 P0002 PWINO PNO
KBPK 
46nm S 
180953Z AUTO 00000KT 10SM CLR 20/20 A3001 RMK AO2 SLP151 T02000200
TAF
KSGF 
37nm W 
180520Z 1806/1906 15005KT P6SM SKC FM181400 17007KT P6SM SKC FM190000 VRB03KT P6SM FEW250
KBBG 
45nm SW 
180520Z 1806/1906 VRB04KT P6SM SKC FM182000 13005KT P6SM SKC
KBPK 
46nm S 
180520Z 1806/1906 16003KT P6SM SKC FM181700 15006KT P6SM FEW050
NOTAMs
Click for the latest NOTAMs
NOTAMs are issued by the DoD/FAA and will open in a separate window not controlled by AirNav.

 

 
 

Would you like to see your business listed on this page?

 If your business provides an interesting product or service to pilots, flight crews, aircraft, or users of the Mansfield Municipal Airport, you should consider listing it here.  To start the listing process, click on the button below
 
Add a business
 

Other Pages about Mansfield Municipal Airport

Update a link
 
Copyright © AirNav, LLC. All rights reserved. Privacy Policy  Contact